TimeCDT,TemperatureF,Dew PointF,Humidity,Sea Level PressureIn,VisibilityMPH,Wind Direction,Wind SpeedMPH,Gust SpeedMPH,PrecipitationIn,Events,Conditions,WindDirDegrees,DateUTC
12:15 AM,69.1,60.3,73,29.94,10.0,SSE,9.2,-,N/A,,Clear,150,2013-06-20 05:15:00
12:35 AM,68.5,60.1,74,29.95,10.0,SSE,6.9,-,N/A,,Clear,150,2013-06-20 05:35:00
12:55 AM,68.0,60.3,76,29.94,10.0,SSE,9.2,-,N/A,,Clear,150,2013-06-20 05:55:00
1:15 AM,67.3,60.1,78,29.94,10.0,SE,8.1,-,N/A,,Clear,140,2013-06-20 06:15:00
1:35 AM,67.1,60.1,78,29.92,10.0,SSE,11.5,-,N/A,,Clear,150,2013-06-20 06:35:00
1:55 AM,66.6,60.8,82,29.91,10.0,SSE,13.8,-,N/A,,Clear,160,2013-06-20 06:55:00
2:15 AM,66.6,61.0,82,29.90,10.0,SSE,13.8,-,N/A,,Clear,160,2013-06-20 07:15:00
2:35 AM,66.2,61.7,85,29.89,10.0,SSE,11.5,-,N/A,,Clear,160,2013-06-20 07:35:00
2:55 AM,65.7,61.9,88,29.90,10.0,SSE,10.4,-,N/A,,Clear,160,2013-06-20 07:55:00
3:15 AM,65.5,62.6,90,29.90,10.0,SSE,9.2,-,N/A,,Clear,150,2013-06-20 08:15:00
3:35 AM,65.8,63.0,90,29.90,10.0,SSE,11.5,-,N/A,,Clear,160,2013-06-20 08:35:00
3:55 AM,66.2,63.5,91,29.91,10.0,SSE,9.2,-,N/A,,Clear,150,2013-06-20 08:55:00
4:15 AM,65.5,63.5,93,29.91,7.0,SSE,8.1,-,N/A,,Clear,150,2013-06-20 09:15:00
4:35 AM,65.3,63.7,94,29.91,7.0,SSE,9.2,-,N/A,,Clear,160,2013-06-20 09:35:00
4:55 AM,65.7,64.0,94,29.91,7.0,SSE,11.5,-,N/A,,Clear,160,2013-06-20 09:55:00
5:15 AM,65.8,64.0,94,29.91,10.0,SSE,12.7,-,N/A,,Clear,160,2013-06-20 10:15:00
5:35 AM,65.7,63.9,94,29.91,7.0,SSE,9.2,-,N/A,,Clear,150,2013-06-20 10:35:00
5:55 AM,64.8,63.5,96,29.92,7.0,South,11.5,-,N/A,,Clear,170,2013-06-20 10:55:00
6:15 AM,64.9,63.7,96,29.92,7.0,South,11.5,-,N/A,,Clear,170,2013-06-20 11:15:00
6:35 AM,64.9,63.7,96,29.92,5.0,SSE,11.5,-,N/A,,Clear,160,2013-06-20 11:35:00
6:55 AM,64.9,63.7,96,29.92,7.0,SSE,13.8,-,N/A,,Clear,160,2013-06-20 11:55:00
7:15 AM,65.7,64.0,94,29.92,7.0,South,12.7,-,N/A,,Clear,170,2013-06-20 12:15:00
7:35 AM,66.4,64.4,93,29.92,10.0,SSE,13.8,-,N/A,,Clear,160,2013-06-20 12:35:00
7:55 AM,67.8,64.6,89,29.92,10.0,South,16.1,-,N/A,,Clear,170,2013-06-20 12:55:00
8:15 AM,69.3,64.4,84,29.92,10.0,SSE,19.6,24.2,N/A,,Clear,160,2013-06-20 13:15:00
8:35 AM,70.7,64.4,80,29.92,10.0,SSE,20.7,25.3,N/A,,Clear,160,2013-06-20 13:35:00
8:55 AM,71.6,64.4,78,29.92,10.0,SSE,17.3,25.3,N/A,,Clear,160,2013-06-20 13:55:00
9:15 AM,73.0,64.8,75,29.93,10.0,South,17.3,-,N/A,,Clear,170,2013-06-20 14:15:00
9:35 AM,74.7,64.9,72,29.93,10.0,South,20.7,-,N/A,,Clear,170,2013-06-20 14:35:00
9:55 AM,75.9,64.9,69,29.93,10.0,South,20.7,-,N/A,,Clear,170,2013-06-20 14:55:00
10:15 AM,77.7,65.1,65,29.92,10.0,South,23.0,-,N/A,,Clear,170,2013-06-20 15:15:00
10:35 AM,79.2,64.6,61,29.92,10.0,South,25.3,29.9,N/A,,Clear,170,2013-06-20 15:35:00
10:55 AM,80.2,64.8,59,29.92,10.0,South,26.5,32.2,N/A,,Clear,180,2013-06-20 15:55:00
11:15 AM,81.7,64.9,57,29.91,10.0,South,27.6,31.1,N/A,,Clear,170,2013-06-20 16:15:00
11:35 AM,83.1,64.9,54,29.92,10.0,South,25.3,31.1,N/A,,Clear,180,2013-06-20 16:35:00
11:55 AM,84.9,63.5,48,29.92,10.0,SSW,23.0,29.9,N/A,,Clear,200,2013-06-20 16:55:00
12:15 PM,86.5,63.7,46,29.92,10.0,SSW,23.0,31.1,N/A,,Clear,200,2013-06-20 17:15:00
12:35 PM,87.4,63.1,44,29.92,10.0,South,23.0,29.9,N/A,,Clear,190,2013-06-20 17:35:00
12:55 PM,88.0,63.0,43,29.91,10.0,South,23.0,29.9,N/A,,Clear,180,2013-06-20 17:55:00
1:15 PM,87.4,62.4,43,29.92,10.0,SSW,23.0,35.7,N/A,,Clear,200,2013-06-20 18:15:00
1:35 PM,88.3,61.5,40,29.91,10.0,SSW,23.0,29.9,N/A,,Clear,200,2013-06-20 18:35:00
1:55 PM,90.1,61.3,38,29.91,10.0,South,21.9,31.1,N/A,,Clear,180,2013-06-20 18:55:00
2:15 PM,91.0,62.6,39,29.91,10.0,South,23.0,31.1,N/A,,Clear,190,2013-06-20 19:15:00
2:35 PM,92.3,62.1,36,29.90,10.0,SSW,25.3,32.2,N/A,,Clear,200,2013-06-20 19:35:00
2:55 PM,92.3,61.3,35,29.90,10.0,South,25.3,28.8,N/A,,Clear,190,2013-06-20 19:55:00
3:15 PM,92.7,60.3,34,29.89,10.0,South,27.6,33.4,N/A,,Clear,180,2013-06-20 20:15:00
3:35 PM,93.2,59.4,32,29.89,10.0,SSW,23.0,33.4,N/A,,Clear,200,2013-06-20 20:35:00
3:55 PM,95.0,61.3,33,29.88,10.0,South,26.5,31.1,N/A,,Clear,180,2013-06-20 20:55:00
4:15 PM,93.9,59.9,32,29.87,10.0,South,29.9,38.0,N/A,,Clear,190,2013-06-20 21:15:00
4:35 PM,93.6,62.6,36,29.87,10.0,South,26.5,36.8,N/A,,Clear,190,2013-06-20 21:35:00
4:55 PM,93.7,63.9,37,29.87,10.0,South,29.9,38.0,N/A,,Clear,180,2013-06-20 21:55:00
5:15 PM,93.6,63.3,37,29.86,10.0,South,27.6,38.0,N/A,,Clear,180,2013-06-20 22:15:00
5:35 PM,93.7,62.4,35,29.86,10.0,South,26.5,33.4,N/A,,Clear,190,2013-06-20 22:35:00
5:55 PM,93.4,64.8,39,29.86,10.0,South,31.1,34.5,N/A,,Scattered Clouds,180,2013-06-20 22:55:00
6:15 PM,92.5,64.4,39,29.85,10.0,South,28.8,41.4,N/A,,Clear,190,2013-06-20 23:15:00
6:35 PM,92.1,64.9,40,29.85,10.0,South,25.3,35.7,N/A,,Clear,170,2013-06-20 23:35:00
6:55 PM,91.8,64.4,40,29.85,10.0,South,28.8,34.5,N/A,,Clear,170,2013-06-20 23:55:00
7:15 PM,90.0,63.9,42,29.85,10.0,South,26.5,33.4,N/A,,Clear,170,2013-06-21 00:15:00
7:35 PM,88.7,63.5,43,29.85,10.0,South,25.3,34.5,N/A,,Clear,170,2013-06-21 00:35:00
7:55 PM,87.8,63.5,44,29.86,10.0,South,23.0,32.2,N/A,,Clear,170,2013-06-21 00:55:00
8:15 PM,86.7,61.7,43,29.87,7.0,South,21.9,35.7,N/A,,Clear,170,2013-06-21 01:15:00
8:35 PM,85.8,59.0,40,29.88,10.0,South,24.2,33.4,N/A,,Clear,170,2013-06-21 01:35:00
8:55 PM,85.1,59.0,41,29.87,10.0,SSE,25.3,32.2,N/A,,Clear,160,2013-06-21 01:55:00
9:15 PM,84.6,59.0,42,29.87,10.0,South,25.3,36.8,N/A,,Clear,170,2013-06-21 02:15:00
9:35 PM,84.4,59.2,42,29.88,10.0,South,29.9,35.7,N/A,,Clear,170,2013-06-21 02:35:00
9:55 PM,83.8,58.5,42,29.88,10.0,South,26.5,34.5,N/A,,Clear,170,2013-06-21 02:55:00
10:15 PM,83.8,58.5,42,29.88,10.0,SSE,27.6,35.7,N/A,,Clear,160,2013-06-21 03:15:00
10:35 PM,83.5,58.8,43,29.88,10.0,SSE,28.8,34.5,N/A,,Clear,160,2013-06-21 03:35:00
10:55 PM,82.4,58.6,44,29.87,10.0,SSE,24.2,32.2,N/A,,Clear,160,2013-06-21 03:55:00
11:15 PM,82.6,53.8,37,29.87,10.0,SSE,24.2,31.1,N/A,,Clear,160,2013-06-21 04:15:00
11:35 PM,82.2,52.7,36,29.88,10.0,South,23.0,28.8,N/A,,Clear,170,2013-06-21 04:35:00
11:55 PM,81.7,50.0,33,29.88,10.0,South,21.9,28.8,N/A,,Clear,180,2013-06-21 04:55:00